TIME,DELAY(SENSOR),PRES,OXYGEN,RAWTEMP,T(OPTODE),TCPHASE,FLUOR,BETA(BETA700),BETA(BETA412),BETA(BETA440),CDOM,C(CSC),ED(ED412.40),ED(ED444.00),ED(ED489.70),ED(ED554.30),LU(LU411.80),LU(LU443.40),LU(LU489.60),LU(LU554.10),COMP,TILTX,TILTY,CHECK
1338954271,5804,873.9600219726562000,42.5579490661621100,659.4492797851562000,4.6461009979248050,54.6122398376464840,52,99,88,79,83,15354,2147760585,2147424118,2148005376,2147875465,2147645339,2147066322,2148258541,2147198363,1138,4,14,36372
1338957867,5808,953.2399902343750000,46.2057800292968750,669.0540771484375000,4.3294367790222170,54.1950798034668000,52,101,86,80,83,15344,2147757120,2147421467,2148007021,2147873024,2147642560,2147062098,2148263899,2147197586,3034,4,14,26621
1338961467,5802,964.1300048828125000,48.3226890563964840,673.8535766601562000,4.1708149909973145,53.9524612426757800,52,100,90,79,82,15346,2147757878,2147420461,2148007680,2147877001,2147642139,2147057627,2148266258,2147198326,994,4,13,18409
1338965067,5810,1000.1599731445312000,49.8124008178710940,677.3336181640625000,4.0556340217590330,53.7872810363769500,53,98,87,78,83,15345,2147755958,2147418441,2148005110,2147875556,2147644681,2147056557,2148262921,2147199579,90,5,13,22929
1338968667,5810,1008.4899902343750000,49.7392082214355500,677.1848144531250000,4.0605640411376950,53.7966804504394500,52,100,89,80,84,15343,2147759113,2147419291,2148007305,2147880164,2147644708,2147060370,2148262509,2147197065,297,4,13,48424
1338972267,5808,1016.4000244140625000,49.1762619018554700,676.5399780273438000,4.0819129943847660,53.8651695251464840,53,99,90,80,84,15342,2147758701,2147423634,2148006198,2147875392,2147645476,2147059437,2148261184,2147200740,38,5,13,38636
1338975867,5808,1024.2299804687500000,48.7902297973632800,676.0056152343750000,4.0996060371398930,53.9113807678222660,51,100,88,78,83,15341,2147761362,2147419748,2148006555,2147876425,2147642258,2147062820,2148263460,2147197440,319,4,13,37248
1338979467,5808,1035.8599853515625000,48.2341117858886700,674.8521728515625000,4.1377749443054200,53.9736785888671900,53,100,90,80,83,15340,2147758253,2147417453,2148006473,2147874605,2147645037,2147063232,2148262683,2147199149,3368,4,13,42822
1338983067,5809,1036.4000244140625000,47.5075607299804700,673.9428710937500000,4.1678600311279300,54.0650901794433600,52,99,91,80,83,15340,2147757065,2147420845,2148004617,2147874624,2147645385,2147057746,2148264649,2147198665,404,4,13,24025
1338986667,5811,1034.8299560546875000,47.4082298278808600,673.1868896484375000,4.1928629875183105,54.0728988647460940,52,98,91,79,83,15335,2147757184,2147421266,2148005622,2147874788,2147642422,2147057225,2148261321,2147204489,3485,4,14,64097
1338990267,5807,1017.4000244140625000,47.1753196716308600,672.8632812500000000,4.2035641670227050,54.1001281738281250,53,101,89,79,83,15336,2147757275,2147421019,2148003739,2147877348,2147642020,2147058313,2148262656,2147195492,317,4,13,11773
1338993867,5811,1021.5999755859375000,47.2430496215820300,673.2158203125000000,4.1919078826904300,54.0967903137207000,52,99,91,80,83,15337,2147757476,2147422363,2148008740,2147874870,2147644809,2147057280,2148263250,2147198299,64,4,13,60297
1338997467,5809,1019.0000000000000000,47.4676589965820300,674.8671875000000000,4.1372799873352050,54.0839500427246100,53,101,90,82,83,15336,2147757796,2147420726,2148006509,2147875885,2147645001,2147059876,2148266441,2147196608,153,4,13,54509
1339001067,5809,1017.1199951171875000,47.6492118835449200,675.0584716796875000,4.1309490203857420,54.0606307983398440,52,98,89,79,85,15313,2147758336,2147421266,2148006948,2147875657,2147644059,2147058980,2148261156,2147200009,18,4,13,19212
1339004667,5807,1006.3200073242188000,48.0477104187011700,676.2703857421875000,4.0908389091491700,54.0181083679199200,52,99,89,80,82,15322,2147761709,2147419053,2148005046,2147874267,2147644964,2147059995,2148260571,2147200237,119,4,13,64192
1339008267,5808,1009.0399780273438000,48.9653205871582000,676.9910278320312000,4.0669798851013180,53.9020118713378900,53,99,85,79,83,15320,2147758500,2147420434,2148004836,2147876800,2147647625,2147062573,2148262985,2147196388,512,4,13,12432
1339011867,5807,1006.0300292968750000,49.3731307983398440,679.5001831054688000,3.9838540554046630,53.8789100646972660,52,99,87,79,84,15321,2147762093,2147419794,2148007241,2147868598,2147642697,2147057005,2148261120,2147199030,3455,4,13,47621
1339015467,5811,1014.6699829101562000,49.4715003967285160,678.4376831054688000,4.0190620422363280,53.8511390686035160,53,98,90,80,83,15323,2147760539,2147423195,2148008036,2147874761,2147643830,2147055433,2148258541,2147199862,411,4,13,6018
1339019067,5811,1020.2000122070312000,48.8218002319335940,676.4302978515625000,4.0855460166931150,53.9140510559082000,52,101,88,78,83,15318,2147759424,2147423616,2148005348,2147874221,2147642450,2147052809,2148260562,2147200173,159,4,13,62322
1339022667,5809,1025.9200439453125000,48.3088302612304700,675.5051269531250000,4.1161689758300780,53.9746818542480500,53,99,91,80,84,15324,2147761709,2147421641,2148007360,2147876342,2147643062,2147058587,2148260644,2147201627,103,4,13,65083
1339026267,5808,1026.3499755859375000,47.4193801879882800,673.2775268554688000,4.1898689270019530,54.0714797973632800,53,99,87,79,84,15323,2147761197,2147420178,2148007908,2147874413,2147642322,2147065691,2148257920,2147199963,221,4,13,62857
1339029867,5809,1022.2199707031250000,47.0823211669921900,674.6520996093750000,4.1443982124328610,54.1368293762207000,53,98,87,78,83,15324,2147759588,2147420964,2148009938,2147874852,2147644288,2147054747,2148254930,2147197787,3238,4,13,55403
1339033467,5808,1024.3900146484375000,47.4894905090332000,674.4824218750000000,4.1500129699707030,54.0765800476074200,53,99,89,79,84,15322,2147763218,2147419200,2148008210,2147874907,2147642267,2147057371,2148263872,2147195958,468,4,13,10789
1339037067,5810,1034.3399658203125000,47.0883407592773440,672.5759277343750000,4.2130680084228520,54.1070594787597660,53,99,88,80,84,15322,2147756598,2147421238,2148008118,2147873353,2147645458,2147063826,2148260598,2147200182,40,4,13,34685
1339040667,5807,1035.3199462890625000,46.6468200683593750,672.4384155273438000,4.2176151275634770,54.1735496520996100,52,99,91,79,83,15318,2147762020,2147422244,2148005961,2147878317,2147645229,2147066377,2148265627,2147198646,3350,4,14,17712
1339044267,5806,1030.5799560546875000,46.5214500427246100,672.5203247070312000,4.2149090766906740,54.1899185180664060,53,100,86,80,83,15321,2147759387,2147422235,2148008576,2147875867,2147643520,2147062061,2148260708,2147197796,2958,4,13,54252
1339047867,5807,992.5599975585938000,46.5578689575195300,672.4152832031250000,4.2183780670166020,54.1797409057617200,52,100,91,78,82,15320,2147756306,2147424155,2148005083,2147876132,2147645595,2147059154,2148262619,2147197650,587,4,13,4734
1339051467,5808,984.7800292968750000,47.4846916198730500,675.4879760742188000,4.1167349815368650,54.0922317504882800,52,99,86,81,83,15318,2147760054,2147420992,2148007076,2147874733,2147642304,2147058029,2148260598,2147198336,3013,4,13,48767
1339055067,5812,982.1199951171875000,48.1797409057617200,676.5468139648438000,4.0816898345947270,54.0035514831543000,53,98,88,78,84,15319,2147758665,2147421558,2148005961,2147877403,2147642596,2147055250,2148265517,2147200603,71,4,13,13509
1339058667,5808,993.5200195312500000,48.4004287719726560,676.3056030273438000,4.0896739959716800,53.9742507934570300,53,99,88,81,82,15313,2147759076,2147421330,2148009298,2147876498,2147644425,2147052918,2148261814,2147196534,817,4,13,33357
1339062267,5807,996.5200195312500000,48.2671508789062500,675.7587890625000000,4.1077752113342285,53.9812812805175800,52,98,91,80,84,15313,2147762889,2147420553,2148006893,2147878244,2147643867,2147055533,2148264868,2147196562,3196,4,13,10586
1339065867,5809,995.1400146484375000,47.5692291259765600,675.5653076171875000,4.1141800880432130,54.0800094604492200,52,97,90,78,83,15318,2147758921,2147422811,2148006345,2147871817,2147640109,2147061458,2148260644,2147201243,37,4,13,12168
1339069467,5810,1004.1300048828125000,46.8201408386230500,673.5112304687500000,4.1821379661560060,54.1579017639160160,53,99,90,80,82,15316,2147759314,2147423707,2148006820,2147876196,2147643611,2147056219,2148261632,2147201938,242,5,13,52446
1339073067,5808,1007.8400268554688000,46.7896995544433600,672.2069702148438000,4.2252640724182130,54.1458511352539060,53,97,87,80,84,15315,2147758180,2147422226,2148007094,2147876882,2147642550,2147059300,2148264137,2147196086,228,4,13,16501
1339076667,5809,1009.5499877929688000,46.3885192871093750,671.6102294921875000,4.2449908256530760,54.1957206726074200,53,107,92,79,83,15315,2147760557,2147421440,2148008064,2147876900,2147639561,2147057609,2148260644,2147200374,3307,4,13,4600
1339080267,5812,1010.9799804687500000,45.7397384643554700,670.6699218750000000,4.2760682106018070,54.2747993469238300,52,101,90,78,83,15316,2147758144,2147419702,2148006747,2147872045,2147641371,2147057755,2148257956,2147198436,3578,4,13,15897
1339083867,5807,999.2399902343750000,45.8340797424316400,671.7694702148438000,4.2397251129150390,54.2760314941406250,53,100,89,78,85,15306,2147757275,2147416758,2148006134,2147875401,2147639835,2147059666,2148257325,2147200009,2874,4,13,12567
1339087467,5811,1000.4799804687500000,46.4407196044921900,672.9663085937500000,4.2001590728759770,54.2075386047363300,52,98,89,80,83,15315,2147757915,2147421120,2148008054,2147876461,2147645440,2147063908,2148260242,2147197641,55,4,13,42229
1339091067,5807,1002.0399780273438000,47.0979614257812500,673.5938720703125000,4.1794052124023440,54.1188201904296900,52,98,90,80,83,15312,2147760777,2147421028,2148007725,2147875456,2147643428,2147060845,2148263625,2147200969,373,4,13,8641
1339094667,5810,992.3400268554688000,47.1660194396972660,674.9835205078125000,4.1334319114685060,54.1264991760253900,53,99,90,81,84,15316,2147758034,2147423241,2148006729,2147877650,2147643584,2147060114,2148261074,2147197814,30,5,13,34674
1339098267,5808,995.0900268554688000,47.1617393493652340,675.9730224609375000,4.1006851196289060,54.1391105651855500,53,99,89,78,84,15315,2147761453,2147421878,2148006144,2147876242,2147644507,2147060644,2148262820,2147199707,264,5,13,20759
1339098655,5810,996.7299804687500000,47.3660087585449200,675.9135131835938000,4.1026549339294430,54.1117897033691400,52,101,86,80,84,15354,2147759515,2147421549,2148004388,2147876169,2147646857,2147057545,2148262601,2147202038,101,4,13,22236
